Showing default

SES 14, 43175

Orbit data source: Space-Track

SES 14, 43175 is a payload satellite owned by SES (LU) in GEO that was launched on Thu, 25 Jan 2018 UTC via an ARIANE 5ECA launch vehicle from the French Guiana (FRGUI). Payload-class satellites include a variety of spacecraft equipped with specific instruments for various scientific and technological missions. These include communications satellites like Starlink; space stations such as the ISS; scientific satellites like the Hubble; Earth observation satellites from companies like Planet Labs, Umbra, and HawkEye 360; GPS; miniature CubeSats for education and research; and military/defense satellites.

Loading next visibility...
Identifier
43175, 2018-012B
Orbit
GEO
Country
Flag of LULU / SES
Related business
Manufacturer
Airbus/Toulouse
Mission
Operational Commercial Communications
Bus & Motor
EUROSTAR 3000E, EOR
Mass
4,423 kg wet, ~2,800 kg dry
Launch date (UTC)
2018-01-25 (8 years ago)
Launch vehicle
ARIANE 5ECA
Launch site
French Guiana (FRGUI)
Object type
Payload
Rocket body
Debris
Shape & HBR
Box + 2 Pan, 19.6 m
Radar Cross Section
49.877 m², Large (>1 m²)

Expand to show TLE details & history
Last TLE update: 2 days ago

TLE from 2 days ago
0 SES 14
1 43175U 18012B   25306.38598117 -.00000266  00000-0  00000+0 0  9994
2 43175   0.0227 358.8800 0001179 217.0347 277.4866  1.00273694  4755
Epoch: 2025-11-02T09:15Z
TLE epoch observation values (Epoch: 2025-11-02T09:15:48.773Z)
Latitude
-0.00753°
Longitude
-47.5068°
Altitude
35,784.905 km
Speed
3.075 km/s
True Right ascension
08h 53m 23s
True Declination
0° 00' 27"
Sunlit
Object was in daylight at epoch
Visualization orbit readout
Latitude
Unknown
Longitude
Unknown
Altitude
Unknown
Speed
Unknown
Apparent Right ascension
Unknown
Apparent Declination
Unknown
Sunlit
N/A
Visualization observer readout
Local Sidereal Time
21:04:23
Azimuth
Unknown
Elevation
Unknown
Doppler factor
Unknown
Orbital elements
Apogee altitude
35,792.101 km
Perigee altitude
35,782.159 km
Semi-major axis
42,165.267 km
Eccentricity
0.00012
Inclination
0.0227°
RAAN
358.88°
Arg. of periapsis
217.0347°
True anomaly
277.4732°
Mean anomaly
277.4866°
Eccentric anomaly
277.4799°
Mean motion
0.25067 °/min
Orbital period
1,436.12 mins
BSTAR
0
Loading maneuver chart data...
Computing Atmospheric mass density...
Loading historical data...
Loading historical data...
Loading historical data...
Loading historical data...
Loading historical data...
Loading historical data...
Loading historical data...
Other satellites on launch #12 in the year 2018 (2018-01-25 UTC)

Documentation

Showing up to 5 results
|